SCP
7 6 6 6 5 5 5 5 4 4 6 6 4 2 2 2 2 2 2 1 1 1 1 1 1 1 1 1 2 2 1 1 0 0 0 0 0 0
6 6 5 5 5 6 6 6 4 4 5 5 4 3 3 3 2 2 2 2 1 1 1 1 1 1 1 1 1 1 1 0 0 0 0 0 0 0
5 5 4 4 5 6 6 6 5 4 4 4 4 4 5 5 4 3 2 2 2 1 1 1 1 0 0 1 1 1 0 0 0 0 0 0 0 0
4 4 4 4 5 6 6 6 5 5 4 4 4 5 6 5 4 3 2 2 2 1 0 0 0 0 0 0 0 0 0 0 0 0 0 0 0 0
4 4 4 4 5 6 6 5 4 4 4 4 4 5 5 4 3 3 3 3 2 1 1 0 0 0 0 0 0 0 0 0 0 0 0 0 0 0
3 3 3 4 4 5 5 4 4 4 4 4 4 4 4 4 3 3 4 4 3 2 1 1 0 0 0 0 0 0 0 0 0 0 0 0 0 0
3 3 3 3 3 3 3 3 3 3 3 3 4 4 4 4 4 4 4 4 3 2 1 1 1 0 0 0 0 0 0 0 0 0 0 0 0 0
4 4 3 3 3 2 2 2 2 3 3 3 4 4 5 5 5 5 5 4 3 2 2 1 1 1 1 1 0 0 0 0 0 0 0 0 0 0
5 4 4 3 3 3 2 2 2 2 3 3 4 5 5 6 6 7 6 5 4 3 2 1 1 1 1 1 0 0 0 0 0 0 0 0 0 0
5 5 5 4 3 3 3 3 3 3 3 3 4 5 6 7 8 8 7 5 4 3 2 1 1 1 1 1 0 0 0 0 0 0 0 0 0 0
6 5 5 4 3 3 4 5 6 5 4 3 4 4 5 6 7 8 6 5 3 3 2 2 2 1 1 1 1 0 0 0 0 0 0 0 0 0
6 5 4 3 3 2 3 5 7 8 7 6 4 4 4 5 5 5 5 4 3 2 2 3 2 2 2 1 1 1 1 0 0 0 0 0 0 0
6 5 3 2 1 1 3 5 6 8 10 9 6 5 5 4 4 4 5 4 3 2 3 3 3 2 2 2 2 2 1 1 1 1 0 0 0 0
6 4 3 2 1 0 1 3 4 7 10 10 8 6 6 5 5 5 5 5 4 3 3 3 3 3 3 2 2 2 2 2 2 2 1 1 1 0
4 3 2 1 1 0 1 1 2 6 9 10 9 9 7 6 5 5 5 5 5 4 3 4 4 3 3 3 2 2 3 3 3 3 3 4 3 2
3 3 2 1 1 1 1 1 2 4 6 8 9 9 8 6 5 4 4 5 5 4 4 4 4 4 4 3 3 2 3 3 3 4 5 6 5 3
2 2 2 1 1 1 2 2 3 3 4 5 6 6 5 5 4 4 4 4 4 4 4 4 5 5 5 4 3 3 2 2 2 3 4 5 5 4
2 2 2 1 1 2 2 3 3 3 3 4 4 4 3 4 4 4 4 4 3 3 3 4 4 5 4 4 3 3 2 1 1 1 2 3 3 3
1 2 2 1 1 1 2 2 3 3 3 3 3 3 3 4 4 5 5 4 4 3 3 3 3 3 3 3 3 2 2 1 0 0 1 1 1 2
1 1 2 2 2 2 2 2 2 2 2 2 2 2 3 3 4 5 5 5 4 4 3 2 2 2 2 3 2 2 1 1 0 0 0 0 0 0
1 1 2 2 2 3 3 2 2 2 1 1 1 1 2 2 3 4 5 5 5 5 5 4 3 1 1 2 2 1 1 1 1 1 0 0 0 0
1 1 2 2 2 3 2 2 2 2 1 1 1 1 2 2 2 3 4 5 5 5 5 5 4 2 1 1 1 1 1 0 0 0 0 0 0 0
1 1 2 2 2 2 2 2 2 2 1 1 2 2 2 2 2 3 3 4 5 5 5 5 4 2 1 1 1 1 1 0 0 0 0 0 0 0
Wind_Speed
6 5 5 4 5 4 4 4 5 6 4 2 2 1 2 2 2 4 3 5 6 6 6 6 6 6 6 5 5 5 4 4 4 4 4 4 4 4
4 5 5 5 4 4 5 5 5 6 6 3 2 2 2 3 2 3 3 6 7 7 7 7 6 6 6 5 5 5 5 4 4 3 3 2 3 3
6 6 7 7 5 5 5 5 5 5 6 5 3 1 2 4 2 3 4 5 4 8 7 7 7 6 6 5 5 5 5 5 4 4 3 3 3 3
6 7 7 6 6 6 5 6 5 5 6 6 4 3 4 4 4 5 4 4 3 7 7 7 6 6 6 6 5 5 4 4 4 4 3 3 3 3
6 7 7 7 7 6 6 6 6 6 5 6 6 3 3 4 4 5 5 3 4 5 8 7 7 7 7 7 6 5 5 5 4 4 4 4 3 3
6 6 7 7 7 7 6 6 6 6 6 6 5 4 4 3 4 4 4 3 3 3 3 4 6 8 8 8 8 7 6 6 5 5 4 4 4 3
6 6 6 5 5 6 6 5 6 5 6 6 5 4 4 3 4 4 4 3 3 3 3 3 4 5 6 8 9 7 6 6 6 6 5 5 4 3
6 6 6 6 6 6 7 7 6 7 6 6 5 5 5 5 4 4 4 4 4 3 3 3 3 3 3 3 6 7 7 6 6 6 5 5 5 4
6 7 7 4 5 6 6 8 8 9 8 8 8 7 6 5 5 6 5 5 4 2 4 5 4 4 3 3 8 8 7 7 6 6 6 5 5 5
7 7 7 6 5 5 7 6 7 7 8 8 7 7 7 5 5 6 5 5 4 3 3 4 3 4 3 3 8 8 8 7 7 6 6 6 6 6
7 6 6 7 3 4 7 7 7 6 5 5 6 5 4 3 4 4 4 5 4 4 4 4 3 3 3 4 6 9 8 8 7 7 7 7 7 7
5 5 4 5 4 4 7 7 7 6 5 4 5 6 6 5 6 6 5 5 5 4 3 4 4 3 3 3 3 4 6 7 8 8 8 8 7 7
5 5 3 3 4 5 7 7 6 6 5 4 4 4 4 4 5 5 5 5 5 5 3 4 4 4 4 3 3 4 4 4 5 5 7 8 8 7
6 6 3 2 4 6 6 6 6 6 5 4 4 4 4 3 3 4 4 5 4 5 4 4 4 4 4 4 4 3 4 4 4 4 4 6 8 9
5 5 5 5 6 7 8 7 7 6 5 4 5 4 3 3 3 3 3 4 4 4 3 3 4 4 5 5 4 4 4 4 4 3 3 4 4 4
5 5 7 7 7 6 5 6 6 5 5 5 4 4 3 3 3 3 3 4 4 3 3 4 4 4 5 4 4 5 4 4 3 3 3 3 3 4
5 5 5 4 4 4 4 4 4 4 4 4 4 3 3 3 3 3 3 4 4 4 3 3 3 3 3 4 4 4 3 4 3 2 3 4 3 3
5 5 5 5 5 5 5 4 4 4 4 4 4 4 4 4 3 3 3 4 4 4 3 3 3 3 3 2 2 3 3 3 2 2 4 4 3 2
5 5 5 5 5 5 5 4 4 3 3 3 4 4 4 4 4 4 4 4 4 4 4 3 4 4 4 4 3 3 3 3 3 3 3 4 3 3
5 5 5 5 5 5 4 4 3 3 3 3 4 4 4 4 4 5 4 4 4 3 3 3 4 4 4 4 3 3 5 4 3 3 3 3 2 1
4 5 5 5 4 4 4 4 4 3 4 4 4 4 4 4 4 5 4 3 4 4 4 4 2 4 4 4 4 4 3 4 3 3 4 4 4 4
5 5 4 4 4 4 4 4 4 3 3 4 4 4 4 4 5 5 4 3 4 4 4 3 3 4 5 5 5 4 3 3 4 4 3 3 4 4
4 4 4 4 4 3 3 4 4 3 3 4 4 4 4 4 5 5 4 4 3 3 4 4 3 4 4 5 4 4 5 4 4 4 4 4 4 4
Wind_Direction
242 233 246 253 251 259 260 267 280 284 272 201 230 227 255 261 166 233 231 170 190 198 204 207 208 206 207 208 209 207 206 211 226 236 248 257 265 270
249 253 254 258 256 252 256 257 261 275 283 286 247 263 292 280 194 254 254 169 191 197 201 204 207 206 205 205 203 198 194 196 205 215 227 244 253 260
253 246 246 260 261 258 250 252 253 256 264 269 256 234 238 269 263 262 246 235 201 186 195 200 204 205 202 198 189 189 193 198 204 213 218 226 234 246
256 260 259 254 250 258 259 252 253 256 260 267 264 245 225 237 242 253 255 245 242 164 183 190 193 193 192 191 187 185 186 190 199 208 218 223 230 240
264 264 264 263 258 255 256 259 256 250 251 260 259 253 246 234 234 242 245 256 255 167 174 182 186 188 190 189 185 186 190 194 202 208 214 217 226 233
266 268 270 267 266 265 257 255 259 262 254 256 262 255 243 230 235 245 238 221 242 221 186 179 179 188 193 190 186 190 196 200 204 210 215 218 223 228
264 265 266 275 290 282 281 274 265 259 258 255 256 253 247 233 241 247 248 235 221 223 217 205 191 198 190 190 189 187 192 198 203 208 211 213 215 217
265 267 261 246 250 247 262 274 277 266 264 262 258 257 254 248 249 252 251 243 240 203 229 235 227 224 213 205 161 173 187 194 198 200 203 206 211 216
268 271 273 271 251 259 245 238 243 245 251 262 268 268 263 250 247 244 242 250 261 231 231 239 233 241 235 160 154 174 185 192 200 203 204 207 212 218
263 265 269 275 278 282 273 263 255 243 236 241 258 266 269 262 240 245 244 237 237 229 230 252 238 248 239 188 163 176 185 194 201 207 209 211 215 219
266 267 271 269 279 287 271 269 266 259 231 232 252 268 286 268 252 249 236 237 242 226 217 243 245 250 242 217 174 177 188 195 203 210 213 213 216 224
261 256 246 266 281 263 267 270 268 270 272 237 230 232 231 221 214 230 237 243 253 247 215 231 231 236 243 226 208 192 199 197 203 209 213 214 216 239
277 272 266 209 245 252 263 269 277 286 274 258 242 234 226 220 215 220 235 248 254 254 228 227 237 237 244 241 228 224 226 213 204 205 206 207 212 237
281 282 295 267 253 249 253 269 274 269 262 258 253 247 239 233 226 223 230 245 257 261 258 244 248 245 243 247 240 227 233 230 226 224 214 190 208 216
283 297 298 279 259 244 237 241 242 247 252 253 252 251 253 252 243 228 226 232 237 244 235 233 247 249 248 246 245 239 239 233 226 226 225 218 224 221
271 267 251 247 249 257 243 229 237 246 253 257 261 264 261 250 242 239 236 228 229 224 214 226 238 246 249 251 245 240 240 235 228 231 241 236 231 232
296 279 275 264 255 252 246 243 245 240 243 253 258 259 261 259 252 240 239 237 236 230 215 215 218 228 252 259 245 243 238 235 222 220 241 245 240 237
284 278 279 276 273 271 264 256 248 249 254 254 254 258 259 259 256 252 250 244 241 234 223 208 202 215 226 222 260 248 240 241 229 220 243 243 241 237
263 273 281 283 282 280 279 275 269 265 264 267 267 263 262 263 260 256 248 244 244 236 225 214 211 217 227 227 204 212 241 240 233 228 239 251 255 248
272 280 282 284 287 287 288 289 290 290 280 273 273 270 268 267 264 258 250 252 251 244 232 221 218 224 231 243 230 206 206 222 223 233 241 250 256 255
283 284 287 290 291 292 294 295 293 288 289 289 288 284 276 270 268 268 260 237 244 243 237 231 223 229 236 234 228 209 185 186 214 235 235 239 244 243
288 289 292 292 289 286 287 287 284 279 276 281 291 293 294 286 272 264 258 247 242 242 247 241 211 218 225 227 230 219 208 193 182 187 215 254 264 259
293 292 291 289 288 284 279 275 278 282 284 286 288 290 290 289 285 276 259 246 244 240 238 235 226 222 225 222 227 224 214 213 213 208 199 189 198 215